Marrakech, Morocco

7:52 AM WEST on September 28, 2016 (GMT +0100)
Marrakech

Weather History for 60230 - March, 2013

Change the Weather History Date:

Friday, March 29, 2013

  Actual Average Record
Temperature  
Mean Temperature 68 °F -  
Max Temperature 83 °F - - ()
Min Temperature 52 °F - - ()
Cooling Degree Days 2    
Growing Degree Days 18 (Base 50)    
Moisture  
Dew Point 50 °F    
Average Humidity 59    
Maximum Humidity 94    
Minimum Humidity 11    
Precipitation  
Precipitation 0.00 in - - ()
Sea Level Pressure  
Sea Level Pressure 30.16 in    
Wind  
Wind Speed 3 mph ()    
Max Wind Speed 9 mph    
Max Gust Speed -    
Visibility 6.1 miles    
Events      
T = Trace of Precipitation, MM = Missing Value Source: Averaged Metar Reports

Daily Weather History Graph

Daily Weather History Graph

Search for Another Location

Airport or City:

Trip Planner

Search our weather history database for the weather conditions in past years. The results will help you decide how hot, cold, wet, or windy it might be!

Date:

Astronomy

Mar. 29, 2013 Rise Set
Actual Time 6:24 AM WET 6:49 PM WET
Civil Twilight 6:00 AM WET 7:14 PM WET
Nautical Twilight 5:31 AM WET 7:42 PM WET
Astronomical Twilight 5:02 AM WET 8:11 PM WET
Moon 9:22 PM WET (3/29) 7:33 AM WET (3/29)
Length of Visible Light 13h 14m
Length of Day
12h 25m
Waning Gibbous, 94% of the Moon is Illuminated
Mar 29
Waning Gibbous
Apr 3
Last Quarter
Apr 10
New
Apr 18
First Quarter
Apr 25
Full

Hourly Weather History & Observations

Time (WET) Temp. Dew Point Humidity Pressure Visibility Wind Dir Wind Speed Gust Speed Precip Events Conditions
12:00 AM 60 °F 54 °F 76% 30.14 in 6 mi East 4.6 mph - -   Clear
12:00 AM 59.0 °F 55.4 °F 88% 30.15 in - East 4.6 mph - N/A   Clear
1:30 AM 59.0 °F 55.4 °F 88% 30.15 in - Calm Calm - N/A   Clear
2:00 AM 59.0 °F 55.4 °F 88% 30.15 in - Calm Calm - N/A   Clear
2:30 AM 59.0 °F 55.4 °F 88% 30.18 in - South 5.8 mph - N/A   Clear
3:00 AM 58 °F 54 °F 83% 30.17 in 6 mi South 3.5 mph - -   Clear
3:00 AM 57.2 °F 53.6 °F 88% 30.18 in - South 4.6 mph - N/A   Clear
3:30 AM 55.4 °F 51.8 °F 88% 30.18 in - Calm Calm - N/A   Clear
4:00 AM 53.6 °F 51.8 °F 94% 30.18 in - Calm Calm - N/A   Clear
4:30 AM 53.6 °F 51.8 °F 94% 30.18 in - West 4.6 mph - N/A   Clear
5:00 AM 55.4 °F 53.6 °F 94% 30.18 in - Calm Calm - N/A   Clear
5:30 AM 53.6 °F 51.8 °F 94% 30.15 in - Calm Calm - N/A   Clear
6:00 AM 53 °F 51 °F 91% 30.18 in 6 mi North 4.6 mph - -   Clear
6:00 AM 53.6 °F 50.0 °F 88% 30.15 in - NNE 3.5 mph - N/A   Clear
6:30 AM 55.4 °F 51.8 °F 88% 30.18 in - NNW 4.6 mph - N/A   Clear
7:00 AM 55.4 °F 53.6 °F 94% 30.15 in 5.6 mi Calm Calm - N/A   Scattered Clouds
7:30 AM 55.4 °F 53.6 °F 94% 30.18 in 6.2 mi East 5.8 mph - N/A   Scattered Clouds
8:00 AM 57.2 °F 53.6 °F 88% 30.18 in 6.2 mi ESE 9.2 mph - N/A   Scattered Clouds
8:30 AM 59.0 °F 55.4 °F 88% 30.15 in 6.2 mi ESE 8.1 mph - N/A   Scattered Clouds
9:00 AM 65 °F 54 °F 60% 30.13 in 6 mi Calm Calm - -   Scattered Clouds
9:00 AM 64.4 °F 55.4 °F 73% 30.15 in 6.2 mi Calm Calm - N/A   Scattered Clouds
9:30 AM 66.2 °F 53.6 °F 64% 30.18 in 6.2 mi Calm Calm - N/A   Scattered Clouds
10:00 AM 66.2 °F 55.4 °F 68% 30.18 in 6.2 mi NNW 5.8 mph - N/A   Mostly Cloudy
10:30 AM 68.0 °F 53.6 °F 60% 30.21 in 6.2 mi Variable 2.3 mph - N/A   Mostly Cloudy
11:00 AM 71.6 °F 51.8 °F 50% 30.18 in 6.2 mi Calm Calm - N/A   Mostly Cloudy
11:30 AM 71.6 °F 50.0 °F 46% 30.21 in 6.2 mi Calm Calm - N/A   Mostly Cloudy
12:00 PM 75 °F 50 °F 31% 30.14 in 6 mi Calm Calm - -   Scattered Clouds
12:00 PM 73.4 °F 51.8 °F 47% 30.18 in 6.2 mi Calm Calm - N/A   Mostly Cloudy
12:30 PM 75.2 °F 50.0 °F 41% 30.18 in 6.2 mi Calm Calm - N/A   Mostly Cloudy
1:00 PM 77.0 °F 46.4 °F 34% 30.18 in 6.2 mi Calm Calm - N/A   Mostly Cloudy
1:30 PM 77.0 °F 46.4 °F 34% 30.15 in 6.2 mi Calm Calm - N/A   Mostly Cloudy
2:00 PM 78.8 °F 44.6 °F 30% 30.15 in 6.2 mi Calm Calm - N/A   Mostly Cloudy
2:30 PM 80.6 °F 41.0 °F 24% 30.15 in 6.2 mi Calm Calm - N/A   Mostly Cloudy
3:00 PM 83 °F 37 °F 11% 30.06 in 6 mi Calm Calm - -   Scattered Clouds
3:00 PM 82.4 °F 39.2 °F 21% 30.12 in 6.2 mi Calm Calm - N/A   Mostly Cloudy
3:30 PM 82.4 °F 35.6 °F 19% 30.12 in 6.2 mi Calm Calm - N/A   Mostly Cloudy
4:30 PM 82.4 °F 41.0 °F 23% 30.12 in 6.2 mi Calm Calm - N/A   Mostly Cloudy
5:00 PM 82.4 °F 41.0 °F 23% 30.12 in 6.2 mi Calm Calm - N/A   Mostly Cloudy
5:30 PM 82.4 °F 39.2 °F 21% 30.12 in 6.2 mi West 5.8 mph - N/A   Mostly Cloudy
6:00 PM 82 °F 41 °F 14% 30.06 in 6 mi West 4.6 mph - -   Scattered Clouds
6:00 PM 82.4 °F 41.0 °F 23% 30.12 in 6.2 mi WNW 4.6 mph - N/A   Mostly Cloudy
6:30 PM 80.6 °F 41.0 °F 24% 30.15 in 6.2 mi WNW 4.6 mph - N/A   Scattered Clouds
7:00 PM 77.0 °F 44.6 °F 32% 30.15 in 6.2 mi West 5.8 mph - N/A   Scattered Clouds
7:30 PM 73.4 °F 46.4 °F 38% 30.15 in 5.6 mi WNW 5.8 mph - N/A   Scattered Clouds
8:00 PM 73.4 °F 46.4 °F 38% 30.15 in 6.2 mi West 2.3 mph - N/A   Scattered Clouds
8:30 PM 71.6 °F 46.4 °F 41% 30.15 in 6.2 mi SW 3.5 mph - N/A   Scattered Clouds
9:00 PM 71 °F 51 °F 38% 30.14 in 6 mi WNW 8.1 mph - -   Scattered Clouds
9:00 PM 71.6 °F 48.2 °F 43% 30.18 in 6.2 mi WNW 6.9 mph - N/A   Scattered Clouds
9:30 PM 69.8 °F 57.2 °F 64% 30.21 in - NNW 4.6 mph - N/A   Clear
10:00 PM 68.0 °F 59.0 °F 73% 30.21 in - Variable 2.3 mph - N/A   Clear
10:30 PM 66.2 °F 59.0 °F 78% 30.21 in 5.6 mi Calm Calm - N/A   Unknown
11:00 PM 64.4 °F 57.2 °F 77% 30.24 in - South 2.3 mph - N/A   Clear
11:30 PM 64.4 °F 57.2 °F 77% 30.24 in - SSW 6.9 mph - N/A   Clear